SHT17Y EGPE-EGLL

Flight info

Callsign SHT17Y
Flight time 1h 10m
Altitude 38000
Route GUSSI DCT NESDI DCT ERSON DCT AKOMU/N0438F390 DCT VAMEB DCT NUGRA
Aircraft A320/M-SDE3FGHIRWY/LB1

Departure

Time 2026-05-07 11:14
Airport Inverness Airport (EGPE)

Arrival

Time 2026-05-07 12:24
Airport London Heathrow Airport (EGLL)
Time Latitude Longitude Altitude Speed Heading
2026-05-07 10:33 57.53924 -4.06255 47 ft 0 kts 275°
2026-05-07 11:04 57.53923 -4.06259 47 ft 0 kts 262°
2026-05-07 11:04 57.53918 -4.06260 47 ft 1 kts 207°
2026-05-07 11:04 57.53914 -4.06249 43 ft 2 kts 132°
2026-05-07 11:05 57.53894 -4.06185 47 ft 8 kts 135°
2026-05-07 11:05 57.53831 -4.06182 47 ft 10 kts 186°
2026-05-07 11:05 57.53772 -4.06144 40 ft 7 kts 123°
2026-05-07 11:05 57.53766 -4.06127 41 ft 0 kts 123°
2026-05-07 11:07 57.53752 -4.06088 40 ft 8 kts 123°
2026-05-07 11:08 57.53719 -4.05955 36 ft 14 kts 89°
2026-05-07 11:08 57.53788 -4.05756 40 ft 24 kts 50°
2026-05-07 11:08 57.53902 -4.05508 41 ft 26 kts 49°
2026-05-07 11:08 57.54033 -4.05225 36 ft 30 kts 49°
2026-05-07 11:09 57.54165 -4.04939 34 ft 28 kts 50°
2026-05-07 11:09 57.54291 -4.04665 37 ft 25 kts 49°
2026-05-07 11:09 57.54413 -4.04400 34 ft 29 kts 49°
2026-05-07 11:09 57.54538 -4.04125 29 ft 29 kts 50°
2026-05-07 11:10 57.54665 -4.03853 29 ft 25 kts 49°
2026-05-07 11:10 57.54763 -4.03677 31 ft 13 kts 40°
2026-05-07 11:10 57.54774 -4.03622 31 ft 3 kts 181°
2026-05-07 11:10 57.54755 -4.03656 30 ft 0 kts 229°
2026-05-07 11:13 57.54747 -4.03674 30 ft 6 kts 229°
2026-05-07 11:13 57.54585 -4.04020 27 ft 73 kts 230°
2026-05-07 11:13 57.54115 -4.05046 34 ft 133 kts 229°
2026-05-07 11:14 57.53470 -4.06482 464 ft 144 kts 226°
2026-05-07 11:14 57.53064 -4.07469 938 ft 145 kts 227°
2026-05-07 11:14 57.52427 -4.08980 1548 ft 156 kts 222°
2026-05-07 11:14 57.51409 -4.09825 1935 ft 174 kts 181°
2026-05-07 11:15 57.50110 -4.09610 2392 ft 200 kts 180°
2026-05-07 11:15 57.48641 -4.09725 2905 ft 223 kts 186°
2026-05-07 11:15 57.47050 -4.10018 3721 ft 233 kts 188°
2026-05-07 11:15 57.45412 -4.10337 4606 ft 241 kts 189°
2026-05-07 11:16 57.43732 -4.10637 5109 ft 245 kts 188°
2026-05-07 11:16 57.42032 -4.10906 6218 ft 245 kts 189°
2026-05-07 11:16 57.40318 -4.11158 7185 ft 249 kts 188°
2026-05-07 11:16 57.38571 -4.11401 8100 ft 254 kts 187°
2026-05-07 11:17 57.36786 -4.11639 8975 ft 259 kts 187°
2026-05-07 11:17 57.34966 -4.11871 9872 ft 265 kts 187°
2026-05-07 11:17 57.33060 -4.12114 10240 ft 285 kts 187°
2026-05-07 11:17 57.31036 -4.12367 10577 ft 304 kts 187°
2026-05-07 11:18 57.28897 -4.12633 10839 ft 311 kts 187°
2026-05-07 11:18 57.26735 -4.12896 10892 ft 312 kts 186°
2026-05-07 11:18 57.24575 -4.13151 10893 ft 310 kts 187°
2026-05-07 11:18 57.22416 -4.13411 10891 ft 311 kts 187°
2026-05-07 11:19 57.20254 -4.13673 10900 ft 311 kts 187°
2026-05-07 11:19 57.18088 -4.13936 10899 ft 312 kts 187°
2026-05-07 11:19 57.15926 -4.14201 10900 ft 312 kts 187°
2026-05-07 11:19 57.13758 -4.14469 10922 ft 312 kts 187°
2026-05-07 11:20 57.11596 -4.14753 10905 ft 311 kts 188°
2026-05-07 11:20 57.09429 -4.15198 11338 ft 316 kts 190°
2026-05-07 11:20 57.07246 -4.15747 12231 ft 317 kts 191°
2026-05-07 11:20 57.05052 -4.16331 12982 ft 321 kts 191°
2026-05-07 11:21 57.02831 -4.16920 13702 ft 325 kts 190°
2026-05-07 11:21 57.00575 -4.17504 14361 ft 329 kts 191°
2026-05-07 11:21 56.98314 -4.18076 15026 ft 333 kts 191°
2026-05-07 11:21 56.95994 -4.18652 15693 ft 338 kts 191°
2026-05-07 11:22 56.93654 -4.19229 16344 ft 341 kts 191°
2026-05-07 11:22 56.91285 -4.19808 16998 ft 345 kts 191°
2026-05-07 11:22 56.88888 -4.20393 17670 ft 349 kts 191°
2026-05-07 11:22 56.86466 -4.20982 18325 ft 353 kts 191°
2026-05-07 11:23 56.84016 -4.21581 18934 ft 357 kts 191°
2026-05-07 11:23 56.81543 -4.22181 19587 ft 360 kts 191°
2026-05-07 11:23 56.79054 -4.22783 20238 ft 362 kts 192°
2026-05-07 11:23 56.76542 -4.23398 20855 ft 365 kts 192°
2026-05-07 11:24 56.74008 -4.24016 21415 ft 369 kts 191°
2026-05-07 11:24 56.71445 -4.24635 22012 ft 373 kts 191°
2026-05-07 11:24 56.68899 -4.25249 22596 ft 375 kts 191°
2026-05-07 11:24 56.66299 -4.25876 23177 ft 378 kts 192°
2026-05-07 11:25 56.63679 -4.26503 23718 ft 381 kts 191°
2026-05-07 11:25 56.61039 -4.27136 24196 ft 384 kts 191°
2026-05-07 11:25 56.58382 -4.27773 24661 ft 387 kts 191°
2026-05-07 11:25 56.55708 -4.28414 25125 ft 389 kts 191°
2026-05-07 11:26 56.53014 -4.29059 25559 ft 391 kts 191°
2026-05-07 11:26 56.50312 -4.29706 25984 ft 393 kts 191°
2026-05-07 11:26 56.47551 -4.30037 26354 ft 401 kts 182°
2026-05-07 11:26 56.44755 -4.29431 26747 ft 410 kts 172°
2026-05-07 11:27 56.42006 -4.27903 27165 ft 416 kts 165°
2026-05-07 11:27 56.39270 -4.26143 27601 ft 418 kts 165°
2026-05-07 11:27 56.36520 -4.24392 28014 ft 421 kts 165°
2026-05-07 11:27 56.33748 -4.22641 28424 ft 423 kts 165°
2026-05-07 11:28 56.30953 -4.20883 28817 ft 426 kts 165°
2026-05-07 11:28 56.28147 -4.19117 29230 ft 428 kts 165°
2026-05-07 11:28 56.25327 -4.17338 29627 ft 431 kts 165°
2026-05-07 11:28 56.22489 -4.15547 29982 ft 434 kts 165°
2026-05-07 11:29 56.19634 -4.13748 30313 ft 436 kts 164°
2026-05-07 11:29 56.16764 -4.11941 30654 ft 438 kts 164°
2026-05-07 11:29 56.13886 -4.10132 30999 ft 439 kts 164°
2026-05-07 11:29 56.10998 -4.08323 31387 ft 439 kts 165°
2026-05-07 11:30 56.08119 -4.06524 31849 ft 437 kts 165°
2026-05-07 11:30 56.05255 -4.04738 32332 ft 435 kts 165°
2026-05-07 11:30 56.02400 -4.02960 32820 ft 433 kts 165°
2026-05-07 11:30 55.99554 -4.01191 33299 ft 432 kts 165°
2026-05-07 11:31 55.96721 -3.99433 33797 ft 430 kts 165°
2026-05-07 11:31 55.93902 -3.97683 34239 ft 428 kts 164°
2026-05-07 11:31 55.91088 -3.95937 34630 ft 428 kts 164°
2026-05-07 11:31 55.88275 -3.94193 34936 ft 429 kts 164°
2026-05-07 11:32 55.82615 -3.90705 35577 ft 431 kts 164°
2026-05-07 11:32 55.79819 -3.88985 35903 ft 431 kts 164°
2026-05-07 11:32 55.76949 -3.87220 36227 ft 431 kts 164°
2026-05-07 11:33 55.74149 -3.85499 36531 ft 432 kts 164°
2026-05-07 11:33 55.71309 -3.83755 36836 ft 432 kts 164°
2026-05-07 11:33 55.68460 -3.82013 36957 ft 433 kts 164°
2026-05-07 11:34 55.62755 -3.78539 36979 ft 433 kts 164°
2026-05-07 11:34 55.57054 -3.75082 36984 ft 433 kts 164°
2026-05-07 11:35 55.51353 -3.71623 36993 ft 433 kts 164°
2026-05-07 11:35 55.45654 -3.68173 36976 ft 433 kts 163°
2026-05-07 11:36 55.39935 -3.64724 36997 ft 434 kts 163°
2026-05-07 11:36 55.34228 -3.61290 36997 ft 434 kts 163°
2026-05-07 11:37 55.28513 -3.57862 37007 ft 434 kts 163°
2026-05-07 11:37 55.22794 -3.54452 37008 ft 434 kts 164°
2026-05-07 11:38 55.17074 -3.51051 37001 ft 434 kts 163°
2026-05-07 11:38 55.11353 -3.47651 37013 ft 434 kts 163°
2026-05-07 11:39 55.05673 -3.44281 37027 ft 434 kts 163°
2026-05-07 11:39 54.99952 -3.40908 37030 ft 434 kts 163°
2026-05-07 11:40 54.94234 -3.37551 37019 ft 434 kts 163°
2026-05-07 11:40 54.88520 -3.34197 37027 ft 434 kts 163°
2026-05-07 11:41 54.82799 -3.30840 37028 ft 434 kts 163°
2026-05-07 11:41 54.77076 -3.27504 37033 ft 434 kts 163°
2026-05-07 11:42 54.71350 -3.24180 37038 ft 434 kts 163°
2026-05-07 11:42 54.65616 -3.20855 37028 ft 434 kts 163°
2026-05-07 11:43 54.59883 -3.17563 37039 ft 434 kts 163°
2026-05-07 11:43 54.54151 -3.14261 37042 ft 434 kts 163°
2026-05-07 11:44 54.48421 -3.10951 37051 ft 434 kts 163°
2026-05-07 11:44 54.42692 -3.07665 37042 ft 434 kts 163°
2026-05-07 11:45 54.36957 -3.04393 37044 ft 434 kts 163°
2026-05-07 11:45 54.31218 -3.01130 37045 ft 435 kts 163°
2026-05-07 11:46 54.25477 -2.97871 37050 ft 435 kts 163°
2026-05-07 11:46 54.19731 -2.94619 37044 ft 434 kts 163°
2026-05-07 11:47 54.14030 -2.91161 37047 ft 435 kts 159°
2026-05-07 11:47 54.08471 -2.87070 37055 ft 435 kts 157°
2026-05-07 11:48 54.02979 -2.82868 37060 ft 435 kts 158°
2026-05-07 11:48 53.97320 -2.79260 37060 ft 434 kts 164°
2026-05-07 11:49 53.91549 -2.76235 37056 ft 433 kts 164°
2026-05-07 11:49 53.85782 -2.73216 37051 ft 434 kts 163°
2026-05-07 11:50 53.80020 -2.70185 37065 ft 434 kts 164°
2026-05-07 11:50 53.74263 -2.67148 37069 ft 433 kts 163°
2026-05-07 11:51 53.68508 -2.64134 37063 ft 433 kts 163°
2026-05-07 11:51 53.62749 -2.61118 37060 ft 433 kts 163°
2026-05-07 11:52 53.56995 -2.58109 37055 ft 433 kts 163°
2026-05-07 11:52 53.51242 -2.55138 37064 ft 433 kts 163°
2026-05-07 11:53 53.45482 -2.52157 37057 ft 433 kts 163°
2026-05-07 11:53 53.39719 -2.49175 37055 ft 433 kts 163°
2026-05-07 11:54 53.33951 -2.46199 37061 ft 433 kts 163°
2026-05-07 11:54 53.28190 -2.43233 37064 ft 433 kts 163°
2026-05-07 11:55 53.22461 -2.40300 37062 ft 433 kts 163°
2026-05-07 11:55 53.16709 -2.37359 37060 ft 426 kts 163°
2026-05-07 11:56 53.11068 -2.34485 36766 ft 421 kts 163°
2026-05-07 11:56 53.08280 -2.33068 36492 ft 416 kts 162°
2026-05-07 11:56 53.05524 -2.31668 36072 ft 413 kts 162°
2026-05-07 11:56 53.02851 -2.30002 35632 ft 409 kts 153°
2026-05-07 11:57 53.00388 -2.27677 35192 ft 405 kts 147°
2026-05-07 11:57 52.98020 -2.25168 34749 ft 403 kts 146°
2026-05-07 11:57 52.95661 -2.22684 34297 ft 401 kts 146°
2026-05-07 11:57 52.93313 -2.20220 33799 ft 398 kts 146°
2026-05-07 11:58 52.90980 -2.17782 33351 ft 394 kts 146°
2026-05-07 11:58 52.88674 -2.15375 32910 ft 390 kts 146°
2026-05-07 11:58 52.86424 -2.13028 32521 ft 385 kts 146°
2026-05-07 11:58 52.84146 -2.10650 31868 ft 387 kts 146°
2026-05-07 11:59 52.81877 -2.08285 31461 ft 383 kts 146°
2026-05-07 11:59 52.79628 -2.05944 31042 ft 380 kts 147°
2026-05-07 11:59 52.77395 -2.03627 30644 ft 377 kts 147°
2026-05-07 11:59 52.75177 -2.01333 30245 ft 375 kts 147°
2026-05-07 12:00 52.72972 -1.99054 29814 ft 373 kts 147°
2026-05-07 12:00 52.71494 -1.97525 29561 ft 370 kts 147°
2026-05-07 12:00 52.69323 -1.95277 29186 ft 367 kts 147°
2026-05-07 12:00 52.67170 -1.93047 28815 ft 364 kts 147°
2026-05-07 12:01 52.65059 -1.90864 28462 ft 361 kts 147°
2026-05-07 12:01 52.62938 -1.88672 28105 ft 358 kts 147°
2026-05-07 12:01 52.60834 -1.86505 27727 ft 356 kts 147°
2026-05-07 12:01 52.58743 -1.84358 27360 ft 353 kts 147°
2026-05-07 12:02 52.56670 -1.82230 26995 ft 350 kts 148°
2026-05-07 12:02 52.54613 -1.80118 26619 ft 347 kts 148°
2026-05-07 12:02 52.52569 -1.78024 26244 ft 345 kts 148°
2026-05-07 12:02 52.50543 -1.75950 25873 ft 342 kts 148°
2026-05-07 12:03 52.48530 -1.73890 25486 ft 340 kts 148°
2026-05-07 12:03 52.46528 -1.71845 25105 ft 338 kts 149°
2026-05-07 12:03 52.44533 -1.69812 24717 ft 337 kts 149°
2026-05-07 12:03 52.42545 -1.67786 24316 ft 336 kts 149°
2026-05-07 12:04 52.40562 -1.65767 23921 ft 336 kts 149°
2026-05-07 12:04 52.38519 -1.63693 23498 ft 361 kts 149°
2026-05-07 12:04 52.36330 -1.61474 23022 ft 375 kts 149°
2026-05-07 12:04 52.34133 -1.59242 22753 ft 367 kts 149°
2026-05-07 12:05 52.31990 -1.57062 22386 ft 361 kts 149°
2026-05-07 12:05 52.29855 -1.54897 21885 ft 359 kts 149°
2026-05-07 12:05 52.27762 -1.52780 21390 ft 357 kts 149°
2026-05-07 12:05 52.25666 -1.50665 21141 ft 348 kts 150°
2026-05-07 12:06 52.23617 -1.48600 20748 ft 344 kts 150°
2026-05-07 12:06 52.21602 -1.46491 20316 ft 343 kts 144°
2026-05-07 12:06 52.19781 -1.43997 19882 ft 341 kts 141°
2026-05-07 12:06 52.17985 -1.41475 19408 ft 341 kts 141°
2026-05-07 12:07 52.16190 -1.38963 19023 ft 339 kts 141°
2026-05-07 12:07 52.14406 -1.36471 18680 ft 337 kts 141°
2026-05-07 12:07 52.12635 -1.34007 18332 ft 333 kts 141°
2026-05-07 12:07 52.10885 -1.31578 17968 ft 328 kts 141°
2026-05-07 12:08 52.09160 -1.29185 17638 ft 323 kts 141°
2026-05-07 12:08 52.07480 -1.26854 17309 ft 319 kts 141°
2026-05-07 12:08 52.05798 -1.24521 16986 ft 316 kts 141°
2026-05-07 12:08 52.04129 -1.22205 16663 ft 314 kts 141°
2026-05-07 12:09 52.02465 -1.19898 16325 ft 312 kts 141°
2026-05-07 12:09 52.00817 -1.17618 16014 ft 310 kts 141°
2026-05-07 12:09 51.99179 -1.15357 15698 ft 309 kts 141°
2026-05-07 12:09 51.97547 -1.13104 15384 ft 307 kts 141°
2026-05-07 12:10 51.95924 -1.10864 15113 ft 304 kts 141°
2026-05-07 12:10 51.94311 -1.08641 14804 ft 306 kts 141°
2026-05-07 12:10 51.92665 -1.06373 14179 ft 308 kts 140°
2026-05-07 12:10 51.91080 -1.04186 13728 ft 296 kts 140°
2026-05-07 12:11 51.89578 -1.02116 13660 ft 276 kts 141°
2026-05-07 12:11 51.88106 -1.00093 13258 ft 278 kts 141°
2026-05-07 12:11 51.86647 -0.98094 12862 ft 277 kts 141°
2026-05-07 12:11 51.85316 -0.95925 12459 ft 269 kts 127°
2026-05-07 12:12 51.84399 -0.93341 12081 ft 265 kts 117°
2026-05-07 12:12 51.83600 -0.90681 11717 ft 260 kts 117°
2026-05-07 12:12 51.82809 -0.88073 11366 ft 257 kts 118°
2026-05-07 12:12 51.82019 -0.85484 11014 ft 255 kts 118°
2026-05-07 12:13 51.81233 -0.82918 10669 ft 254 kts 117°
2026-05-07 12:13 51.80448 -0.80366 10327 ft 252 kts 117°
2026-05-07 12:13 51.79670 -0.77832 9994 ft 252 kts 117°
2026-05-07 12:13 51.78886 -0.75281 9620 ft 254 kts 117°
2026-05-07 12:14 51.78099 -0.72721 9247 ft 255 kts 117°
2026-05-07 12:14 51.77307 -0.70149 8875 ft 257 kts 117°
2026-05-07 12:14 51.76509 -0.67563 8515 ft 258 kts 117°
2026-05-07 12:14 51.75720 -0.65005 8164 ft 251 kts 117°
2026-05-07 12:15 51.74947 -0.62501 7829 ft 248 kts 117°
2026-05-07 12:15 51.74179 -0.60015 7500 ft 246 kts 117°
2026-05-07 12:15 51.73363 -0.57612 7183 ft 247 kts 127°
2026-05-07 12:15 51.72091 -0.55854 7076 ft 241 kts 155°
2026-05-07 12:16 51.70480 -0.55334 7076 ft 238 kts 187°
2026-05-07 12:16 51.68948 -0.56240 7083 ft 236 kts 215°
2026-05-07 12:16 51.67639 -0.57863 6920 ft 239 kts 220°
2026-05-07 12:16 51.66369 -0.59578 6638 ft 237 kts 221°
2026-05-07 12:17 51.65114 -0.61284 6363 ft 235 kts 221°
2026-05-07 12:17 51.63865 -0.62979 6071 ft 233 kts 221°
2026-05-07 12:17 51.62654 -0.64702 5785 ft 231 kts 229°
2026-05-07 12:17 51.61676 -0.66742 5488 ft 230 kts 235°
2026-05-07 12:18 51.60771 -0.68851 5209 ft 229 kts 236°
2026-05-07 12:18 51.59879 -0.70962 4941 ft 227 kts 236°
2026-05-07 12:18 51.58994 -0.73063 4713 ft 226 kts 236°
2026-05-07 12:18 51.57919 -0.74872 4499 ft 224 kts 210°
2026-05-07 12:19 51.56450 -0.75584 4283 ft 220 kts 189°
2026-05-07 12:19 51.54942 -0.75841 4091 ft 215 kts 186°
2026-05-07 12:19 51.53510 -0.76036 3998 ft 204 kts 186°
2026-05-07 12:19 51.52134 -0.76215 4020 ft 191 kts 186°
2026-05-07 12:20 51.50833 -0.76383 3797 ft 188 kts 186°
2026-05-07 12:20 51.49533 -0.76430 3664 ft 188 kts 169°
2026-05-07 12:20 51.48376 -0.75477 3421 ft 190 kts 137°
2026-05-07 12:20 51.47705 -0.73683 3199 ft 190 kts 105°
2026-05-07 12:21 51.47620 -0.71575 2965 ft 190 kts 89°
2026-05-07 12:21 51.47639 -0.69473 2711 ft 187 kts 89°
2026-05-07 12:21 51.47654 -0.67397 2457 ft 185 kts 90°
2026-05-07 12:21 51.47667 -0.65351 2210 ft 181 kts 90°
2026-05-07 12:22 51.47678 -0.63388 1970 ft 172 kts 89°
2026-05-07 12:22 51.47688 -0.61496 1739 ft 169 kts 89°
2026-05-07 12:22 51.47697 -0.59625 1501 ft 167 kts 89°
2026-05-07 12:22 51.47707 -0.57769 1280 ft 167 kts 89°
2026-05-07 12:23 51.47716 -0.55917 1053 ft 165 kts 90°
2026-05-07 12:23 51.47724 -0.54165 842 ft 148 kts 91°
2026-05-07 12:23 51.47731 -0.52575 634 ft 139 kts 91°
2026-05-07 12:23 51.47738 -0.51043 436 ft 136 kts 91°
2026-05-07 12:24 51.47742 -0.49524 259 ft 136 kts 92°
2026-05-07 12:24 51.47742 -0.48013 100 ft 134 kts 86°
2026-05-07 12:24 51.47751 -0.46849 91 ft 54 kts 90°
2026-05-07 12:24 51.47756 -0.46361 92 ft 20 kts 89°
2026-05-07 12:25 51.47706 -0.46145 90 ft 23 kts 142°
2026-05-07 12:25 51.47627 -0.46069 86 ft 11 kts 172°
2026-05-07 12:25 51.47595 -0.46164 88 ft 11 kts 268°
2026-05-07 12:25 51.47593 -0.46303 89 ft 14 kts 270°
2026-05-07 12:26 51.47592 -0.46526 90 ft 24 kts 269°
2026-05-07 12:26 51.47591 -0.46793 90 ft 21 kts 269°
2026-05-07 12:26 51.47582 -0.47053 90 ft 25 kts 269°
2026-05-07 12:26 51.47582 -0.47332 89 ft 26 kts 269°
2026-05-07 12:27 51.47582 -0.47589 85 ft 22 kts 269°
2026-05-07 12:27 51.47580 -0.47851 90 ft 21 kts 270°
2026-05-07 12:27 51.47580 -0.48038 89 ft 17 kts 270°
2026-05-07 12:27 51.47579 -0.48245 90 ft 20 kts 269°
2026-05-07 12:28 51.47574 -0.48423 89 ft 12 kts 256°
2026-05-07 12:28 51.47513 -0.48480 87 ft 11 kts 194°
2026-05-07 12:28 51.47482 -0.48543 85 ft 9 kts 271°
2026-05-07 12:28 51.47486 -0.48660 87 ft 11 kts 271°
2026-05-07 12:29 51.47485 -0.48784 86 ft 8 kts 269°
2026-05-07 12:29 51.47463 -0.48835 87 ft 7 kts 193°
2026-05-07 12:29 51.47418 -0.48831 85 ft 3 kts 180°
2026-05-07 12:29 51.47404 -0.48831 85 ft 0 kts 180°